Weather History for St. Kitts, Saint Kitts and Nevis

Change the Weather History Date:

Tuesday, November 12, 2013

  Actual Average Record
Temperature  
Mean Temperature 82 °F -  
Max Temperature 88 °F 82 °F 88 °F (2013)
Min Temperature 76 °F 75 °F 73 °F (2006)
Cooling Degree Days 17    
Growing Degree Days 32 (Base 50)    
Moisture  
Dew Point 75 °F    
Average Humidity 72    
Maximum Humidity 84    
Minimum Humidity 60    
Precipitation  
Precipitation 0.00 in - - ()
Sea Level Pressure  
Sea Level Pressure 29.96 in    
Wind  
Wind Speed 15 mph ()    
Max Wind Speed 21 mph    
Max Gust Speed -    
Visibility 9.1 miles    
Events      
Averages and records for this station are not official NWS values.
T = Trace of Precipitation, MM = Missing Value Source: Averaged Metar Reports

Daily Weather History Graph

Daily Weather History Graph

Search for Another Location

Airport:

Trip Planner

Search our weather history database for the weather conditions in past years. The results will help you decide how hot, cold, wet, or windy it might be!

Date:

Astronomy

Nov. 12, 2013 Rise Set
Actual Time 6:14 AM AST 5:35 PM AST
Civil Twilight 5:51 AM AST 5:58 PM AST
Nautical Twilight 5:25 AM AST 6:24 PM AST
Astronomical Twilight 4:59 AM AST 6:50 PM AST
Moon 2:09 PM AST (11/12) 1:42 AM AST (11/12)
Length of Visible Light 12h 06m
Length of Day
11h 21m
Waxing Gibbous, 75% of the Moon is Illuminated
Nov 12
Waxing Gibbous
Nov 17
Full
Nov 25
Last Quarter
Dec 2
New
Dec 9
First Quarter

Hourly Weather History & Observations

Time (AST) Temp. Heat Index Dew Point Humidity Pressure Visibility Wind Dir Wind Speed Gust Speed Precip Events Conditions
6:00 AM 80.6 °F 85.4 °F 73.4 °F 79% 29.95 in 6.2 mi ENE 15.0 mph - N/A   Partly Cloudy
7:00 AM 80.6 °F 85.4 °F 73.4 °F 79% 29.98 in 6.2 mi ENE 18.4 mph - N/A   Partly Cloudy
8:00 AM 83 °F - 76 °F 75% 30.00 in 17 mi ENE 17.3 mph - -   Partly Cloudy
8:00 AM 82.4 °F 90.9 °F 77.0 °F 84% 29.98 in 6.2 mi ENE 17.3 mph - N/A   Mostly Cloudy
9:00 AM 82.4 °F 89.5 °F 75.2 °F 79% 30.01 in 6.2 mi ENE 17.3 mph - N/A   Partly Cloudy
10:00 AM 86.0 °F 96.9 °F 77.0 °F 74% 30.01 in 6.2 mi ENE 15.0 mph - N/A   Mostly Cloudy
11:00 AM 86 °F - 75 °F 62% 30.00 in 18 mi East 13.8 mph - -   Scattered Clouds
11:00 AM 86.0 °F 95.1 °F 75.2 °F 70% 29.98 in 6.2 mi East 13.8 mph - N/A   Partly Cloudy
12:00 PM 87.8 °F 95.6 °F 73.4 °F 62% 29.98 in 6.2 mi ENE 15.0 mph - N/A   Scattered Clouds
1:00 PM 87.8 °F 97.6 °F 75.2 °F 66% 29.95 in 6.2 mi ENE 18.4 mph - N/A   Partly Cloudy
2:00 PM 87 °F - 75 °F 60% 29.93 in 18 mi ENE 20.7 mph - -   Scattered Clouds
2:00 PM 87.8 °F 97.6 °F 75.2 °F 66% 29.92 in 6.2 mi ENE 20.7 mph - N/A   Partly Cloudy
3:00 PM 86.0 °F 95.1 °F 75.2 °F 70% 29.92 in 6.2 mi East 16.1 mph - N/A   Partly Cloudy
4:00 PM 84.2 °F 92.3 °F 75.2 °F 74% 29.92 in 6.2 mi ENE 18.4 mph - N/A   Partly Cloudy
5:00 PM 83 °F - 76 °F 73% 29.94 in 19 mi ENE 16.1 mph - -   Scattered Clouds
5:00 PM 82.4 °F 89.5 °F 75.2 °F 79% 29.92 in 6.2 mi ENE 16.1 mph - N/A   Partly Cloudy
6:00 PM 82.4 °F 88.2 °F 73.4 °F 74% 29.92 in 6.2 mi East 13.8 mph - N/A   Partly Cloudy
7:00 PM 82.4 °F 88.2 °F 73.4 °F 74% 29.95 in 6.2 mi NE 17.3 mph - N/A   Scattered Clouds
8:00 PM 82 °F - 73 °F 68% 29.98 in 17 mi ENE 17.3 mph - -   Scattered Clouds
8:00 PM 82.4 °F 88.2 °F 73.4 °F 74% 29.98 in 6.2 mi ENE 17.3 mph - N/A   Partly Cloudy